This demonstration page uses our WeatherBlox Daily Observations layout. Learn more.

Left ArrowRight Arrow

39.51506, -84.39828

Hourly Observations for August 20, 2016

Temp ( °F °C ) Dew Point ( °F °C ) Humidity (%) Winds ( mph kmh ) Pressure ( in mb ) Visibility ( mi km ) Precip ( " mm )
12:15 am 00:15 Hazy 72 22.3 67 19.6 85 85 N N/A 29.91 1013 5 8 N/A
12:35 am 00:35 Hazy 72 22.3 67 19.6 85 85 N N/A 29.91 1013 5 8 N/A
12:55 am 00:55 Hazy 71 21.9 66 19.1 84 84 N N/A 29.91 1013 5 8 N/A
1:15 am 01:15 Hazy 72 22 67 19.3 85 85 NNW 3 6 29.91 1013 5 8 N/A
1:35 am 01:35 Hazy 71 21.6 66 18.7 84 84 N N/A 29.91 1013 5 8 N/A
1:55 am 01:55 Hazy 70 21 65 18.2 84 84 N N/A 29.91 1013 4 6 N/A
2:15 am 02:15 Hazy 70 20.9 65 18.2 85 85 N N/A 29.91 1013 4 6 N/A
2:35 am 02:35 Hazy 69 20.8 65 18.1 85 85 N N/A 29.91 1013 4 6 N/A
2:55 am 02:55 Hazy 69 20.8 65 18.1 85 85 N N/A 29.91 1013 3 4 N/A
3:15 am 03:15 Hazy 69 20.8 65 18.1 85 85 N N/A 29.91 1013 2 3 N/A
3:35 am 03:35 Hazy 69 20.8 65 18.2 85 85 N N/A 29.88 1012 3 4 N/A
3:55 am 03:55 Hazy 69 20.8 65 18.2 85 85 N N/A 29.88 1012 3 4 N/A
4:15 am 04:15 Hazy 69 20.8 65 18.2 85 85 N N/A 29.91 1013 3 5 N/A
4:35 am 04:35 Hazy 69 20.8 65 18.2 85 85 N N/A 29.88 1012 3 4 N/A
4:55 am 04:55 Hazy 69 20.8 65 18.2 85 85 N N/A 29.88 1012 3 4 N/A
5:15 am 05:15 Mostly Cloudy with Haze 69 20.8 65 18.3 86 86 N N/A 29.88 1012 2 3 N/A
5:35 am 05:35 Mostly Cloudy with Haze 69 20.8 65 18.3 86 86 N N/A 29.88 1012 0 0 N/A
5:55 am 05:55 Hazy 69 20.8 65 18.5 87 87 N N/A 29.88 1012 3 4 N/A
6:15 am 06:15 Hazy 69 20.8 65 18.4 86 86 N N/A 29.88 1012 3 5 N/A
6:35 am 06:35 Mostly Cloudy with Haze 69 20.8 65 18.4 86 86 N N/A 29.88 1012 1 2 N/A
6:55 am 06:55 Mostly Cloudy with Haze 69 20.8 65 18.3 86 86 N N/A 29.88 1012 1 1 N/A
7:15 am 07:15 Mostly Cloudy with Haze 69 20.8 65 18.3 86 86 N N/A 29.88 1012 1 2 N/A
7:35 am 07:35 Mostly Cloudy with Haze 69 20.8 65 18.4 86 86 N N/A 29.88 1012 2 3 N/A
7:55 am 07:55 Mostly Cloudy with Haze 74 23.6 70 21.1 86 86 SE 3 6 29.85 1011 3 5 N/A
8:15 am 08:15 Cloudy with Haze 74 23.6 70 21.1 86 86 SSE 3 6 29.85 1011 5 8 N/A
8:35 am 08:35 Hazy 74 23.6 70 21.1 86 86 SE 5 7 29.85 1011 5 8 N/A
8:55 am 08:55 Sunny 74 23.6 69 20.6 83 83 SE 7 11 29.85 1011 7 11 N/A
9:15 am 09:15 Sunny 75 23.8 69 20.4 81 81 SE 6 9 29.85 1011 10 16 N/A
9:35 am 09:35 Partly Cloudy 77 25.1 70 21.3 80 80 S 8 13 29.85 1011 10 16 N/A
9:55 am 09:55 Mostly Cloudy 77 25.1 70 21 78 78 SSE 9 15 29.83 1010 10 16 N/A
10:15 am 10:15 Partly Cloudy 77 25.1 69 20.4 75 75 SSE 8 13 29.83 1010 10 16 N/A
10:35 am 10:35 Partly Cloudy 79 26.3 70 20.9 72 72 SSE 12 19 29.83 1010 10 16 N/A
10:55 am 10:55 Mostly Cloudy 80 26.5 70 21.2 73 73 S 9 15 29.80 1009 10 16 N/A
11:15 am 11:15 Mostly Cloudy 80 26.5 69 20.8 71 71 S 13 20 29.80 1009 10 16 N/A
11:35 am 11:35 Partly Cloudy 81 27.2 69 20.6 67 67 S 12 19 29.80 1009 10 16 N/A
11:55 am 11:55 Mostly Cloudy 81 27.2 68 20.2 66 66 S 14 22 29.80 1009 10 16 N/A
12:15 pm 12:15 Cloudy 81 27.2 68 19.9 64 64 S 9 15 29.80 1009 10 16 N/A
12:35 pm 12:35 Cloudy 81 27.2 68 20 65 65 S 8 13 29.80 1009 10 16 N/A
12:55 pm 12:55 Cloudy 82 28 68 20 62 62 S 16 26 29.77 1008 10 16 N/A
1:15 pm 13:15 Cloudy 80 26.8 68 20.1 67 67 S 10 17 29.77 1008 10 16 N/A
1:35 pm 13:35 Mostly Cloudy 81 27.2 69 20.6 67 67 SSE 14 22 29.77 1008 10 16 N/A
1:55 pm 13:55 Mostly Cloudy 81 27.3 69 20.5 66 66 S 13 20 29.77 1008 10 16 N/A
2:15 pm 14:15 Cloudy with Rain 80 26.7 69 20.5 69 69 S 15 24 29.77 1008 7 11 N/A
2:35 pm 14:35 Cloudy with Rain 77 25.1 70 21.3 80 80 S 9 15 29.80 1009 4 6 N/A
2:55 pm 14:55 Cloudy with Light Rain 77 25.1 71 21.6 81 81 SSE 9 15 29.80 1009 10 16 N/A
3:15 pm 15:15 Cloudy 77 25.1 71 21.5 81 81 SSW 8 13 29.77 1008 10 16 N/A
3:35 pm 15:35 Cloudy 80 26.5 72 22.2 77 77 S 10 17 29.74 1007 10 16 N/A
3:55 pm 15:55 Cloudy 80 26.5 73 22.6 79 79 S 12 19 29.74 1007 10 16 N/A
4:15 pm 16:15 Partly Cloudy 80 26.7 72 22.4 77 77 S 10 17 29.71 1006 10 16 N/A
4:35 pm 16:35 Mostly Cloudy 80 26.5 72 22.1 77 77 SSW 7 11 29.71 1006 10 16 N/A
4:55 pm 16:55 Mostly Cloudy 81 27.2 72 22.3 75 75 SSW 9 15 29.71 1006 10 16 N/A
5:15 pm 17:15 Mostly Cloudy 80 26.6 71 21.9 75 75 SSE 9 15 29.71 1006 10 16 N/A
5:35 pm 17:35 Cloudy 80 26.6 71 21.7 75 75 SSE 9 15 29.71 1006 10 16 N/A
5:55 pm 17:55 Cloudy with Heavy Rain 79 26.3 71 21.6 75 75 S 17 28 29.71 1006 4 6 N/A
6:15 pm 18:15 Cloudy with Light Rain 74 23.6 69 20.5 83 83 WSW 3 6 29.74 1007 10 16 N/A
6:35 pm 18:35 Cloudy 77 25.1 71 21.8 82 82 N N/A 29.74 1007 10 16 N/A
6:55 pm 18:55 Cloudy with Light Rain 77 25.1 72 22 83 83 N N/A 29.74 1007 5 8 N/A
7:15 pm 19:15 Cloudy with Rain 77 25.1 72 22.3 85 85 S 7 11 29.74 1007 3 4 N/A
7:35 pm 19:35 Cloudy 77 25.1 71 21.7 81 81 S 6 9 29.74 1007 10 16 N/A
7:55 pm 19:55 Mostly Cloudy 77 25.1 72 22 83 83 S 8 13 29.74 1007 10 16 N/A
8:15 pm 20:15 Cloudy 77 25.1 71 21.7 81 81 SSW 9 15 29.74 1007 10 16 N/A
8:35 pm 20:35 Cloudy with Heavy Rain 72 22 67 19.3 85 85 SSW 9 15 29.77 1008 3 5 N/A
8:55 pm 20:55 Cloudy with Rain 71 21.6 66 18.7 84 84 SSW 6 9 29.77 1008 10 16 N/A
9:15 pm 21:15 Cloudy with Rain 73 23 69 20.4 85 85 S 3 6 29.77 1008 5 8 N/A
9:35 pm 21:35 Cloudy with Light Rain 74 23.6 70 21 85 85 S 6 9 29.77 1008 7 11 N/A
9:55 pm 21:55 Cloudy 74 23.6 70 21 85 85 SSW 6 9 29.77 1008 10 16 N/A
10:15 pm 22:15 Cloudy 74 23.6 70 21.1 86 86 SSW 5 7 29.77 1008 10 16 N/A
10:35 pm 22:35 Cloudy 74 23.6 70 21 85 85 SSW 5 7 29.77 1008 10 16 N/A
10:55 pm 22:55 Mostly Cloudy 74 23.6 70 21 85 85 S 6 9 29.77 1008 10 16 N/A
11:15 pm 23:15 Partly Cloudy 74 23.2 69 20.3 84 84 SSW 7 11 29.77 1008 10 16 N/A
11:35 pm 23:35 Partly Cloudy 72 22 67 19.3 85 85 SW 3 6 29.77 1008 10 16 N/A
11:55 pm 23:55 Partly Cloudy 71 21.6 66 19 85 85 SW 6 9 29.77 1008 10 16 N/A

Powered by AerisWeather